EW5802 Weather Reports


time (UTC)temp
C
wind
direction
speed
KPH
gust
KPH
rain 1hr
cm
rain 24hr
cm
rain mn
cm
humidity
%
barometer
mb
20260507101205 8 160 1.6 1.6 0.00 0.76 0.03 77 1011.9
20260507100705 8 160 0.0 1.6 0.00 0.76 0.03 79 1011.8
20260507100205 8 160 0.0 3.2 0.00 0.76 0.03 79 1011.7
20260507094705 8 160 0.0 1.6 0.00 0.76 0.03 79 1011.5
20260507094205 8 160 0.0 3.2 0.00 0.76 0.03 78 1011.5
20260507093705 8 160 1.6 3.2 0.00 0.76 0.03 78 1011.5
20260507093205 8 160 1.6 3.2 0.00 0.76 0.03 78 1011.4
20260507092705 8 160 0.0 3.2 0.00 0.76 0.03 78 1011.3
20260507092206 8 160 0.0 1.6 0.00 0.76 0.03 78 1011.3
20260507091706 8 160 1.6 3.2 0.00 0.76 0.03 78 1011.2
20260507091205 8 160 0.0 3.2 0.00 0.76 0.03 76 1011.2
20260507090705 8 160 1.6 3.2 0.00 0.76 0.03 76 1011.2
20260507090205 8 160 0.0 3.2 0.00 0.76 0.03 75 1011.1
20260507085705 9 160 0.0 3.2 0.00 0.76 0.03 72 1011.1
20260507085205 9 160 0.0 3.2 0.00 0.76 0.03 69 1011.1
20260507084705 10 160 1.6 3.2 0.00 0.76 0.03 68 1011.1
20260507084204 10 160 1.6 3.2 0.00 0.76 0.03 61 1011.0
20260507083205 10 241 1.6 3.2 0.00 0.76 0.03 62 1011.1
20260507082205 10 241 0.0 3.2 0.00 0.76 0.03 58 1011.1
20260507081705 10 239 1.6 3.2 0.00 0.76 0.03 60 1011.2
20260507081205 10 85 1.6 8.0 0.00 0.76 0.03 60 1011.2
20260507080704 11 213 3.2 11.3 0.00 0.76 0.03 58 1011.2
20260507080205 11 256 3.2 11.3 0.00 0.76 0.03 59 1011.2
20260507075705 11 329 1.6 4.8 0.00 0.76 0.03 55 1011.2
20260507074705 11 167 0.0 9.7 0.00 0.76 0.03 57 1011.2
20260507074205 11 215 3.2 4.8 0.00 0.76 0.03 59 1011.2
20260507073705 11 141 4.8 8.0 0.00 0.76 0.03 56 1011.2
20260507073204 11 169 1.6 3.2 0.00 0.76 0.03 55 1011.3
20260507072705 11 170 3.2 9.7 0.00 0.76 0.03 53 1011.3
20260507072205 11 201 3.2 8.0 0.00 0.76 0.03 57 1011.2
20260507071705 10 242 1.6 12.9 0.00 0.76 0.03 65 1011.2
20260507071204 10 202 0.0 3.2 0.00 0.76 0.03 67 1011.2
20260507070705 11 202 1.6 3.2 0.00 0.76 0.03 69 1011.2
20260507070205 11 202 1.6 8.0 0.00 0.76 0.03 67 1011.2
20260507065705 11 189 1.6 3.2 0.00 0.76 0.03 65 1011.2
20260507065204 11 188 1.6 3.2 0.00 0.76 0.03 66 1011.2
20260507064705 11 188 1.6 4.8 0.00 0.76 0.03 67 1011.2
20260507064205 11 188 1.6 4.8 0.00 0.76 0.03 60 1011.1
20260507063704 11 213 4.8 11.3 0.00 0.76 0.03 63 1011.1
20260507062704 11 195 1.6 4.8 0.00 0.76 0.03 66 1010.9
20260507062204 11 14 3.2 4.8 0.00 0.76 0.03 66 1011.1
20260507061705 11 215 3.2 8.0 0.00 0.76 0.03 71 1011.1
20260507060705 11 204 1.6 4.8 0.00 0.76 0.03 72 1011.0
20260507060205 11 28 3.2 11.3 0.00 0.76 0.03 69 1011.0
20260507055705 11 287 3.2 12.9 0.00 0.76 0.03 69 1011.1
20260507055205 11 258 3.2 9.7 0.00 0.76 0.03 70 1011.0
20260507054704 11 0 3.2 4.8 0.03 0.76 0.03 72 1011.1
20260507054205 11 196 1.6 4.8 0.03 0.76 0.03 75 1011.0
20260507053704 11 70 1.6 4.8 0.03 0.76 0.03 75 1010.9
20260507053205 11 16 3.2 8.0 0.03 0.76 0.03 77 1011.0
20260507051704 11 257 1.6 8.0 0.03 0.76 0.03 78 1011.1
20260507051204 11 222 1.6 4.8 0.03 0.76 0.03 79 1011.0
20260507050705 11 100 3.2 4.8 0.03 0.76 0.03 79 1011.0
20260507050204 11 122 1.6 8.0 0.03 0.76 0.03 79 1011.1
20260507045705 11 28 3.2 4.8 0.03 0.76 0.03 81 1011.0
20260507045205 11 294 1.6 3.2 0.03 0.76 0.03 81 1010.9
20260507044704 12 294 0.0 4.8 0.00 0.74 0.00 78 1010.9
20260507044205 12 204 0.0 4.8 0.00 0.74 0.00 76 1011.2
20260507043704 12 275 1.6 8.0 0.00 0.74 0.00 74 1011.2
20260507043204 12 219 0.0 4.8 0.00 0.74 0.00 73 1011.3
20260507042705 12 253 3.2 9.7 0.00 0.74 0.00 72 1011.3
20260507042204 12 18 3.2 4.8 0.00 0.74 0.00 72 1011.2
20260507041704 12 246 1.6 4.8 0.00 0.74 0.00 73 1011.0
20260507041205 12 181 1.6 4.8 0.00 0.74 0.00 71 1011.0
20260507040705 13 182 1.6 4.8 0.00 0.74 0.00 72 1011.0
20260507040204 13 214 1.6 3.2 0.00 0.74 0.00 72 1011.1
20260507035705 13 216 0.0 3.2 0.00 0.74 0.74 73 1011.0
20260507035204 13 216 0.0 3.2 0.00 0.74 0.74 72 1011.0
20260507034205 13 247 3.2 4.8 0.00 0.74 0.74 71 1011.1
20260507033704 13 214 1.6 4.8 0.00 0.74 0.74 71 1010.8
20260507033204 13 229 4.8 9.7 0.00 0.74 0.74 72 1011.0
20260507032704 13 341 1.6 3.2 0.00 0.74 0.74 71 1010.7
20260507032204 13 220 3.2 8.0 0.00 0.74 0.74 72 1010.9
20260507031705 13 254 3.2 4.8 0.00 0.74 0.74 70 1010.7
20260507030704 13 345 1.6 4.8 0.00 0.74 0.74 71 1010.6
20260507025704 13 244 1.6 11.3 0.00 0.74 0.74 75 1010.8
20260507025205 13 180 1.6 3.2 0.00 0.74 0.74 74 1010.6
20260507024705 13 180 1.6 4.8 0.00 0.74 0.74 74 1010.4
20260507024204 13 180 1.6 3.2 0.00 0.74 0.74 74 1010.3
20260507023704 13 179 3.2 4.8 0.00 0.74 0.74 72 1010.6
20260507023204 13 247 3.2 14.5 0.00 0.74 0.74 73 1010.7
20260507022705 13 187 3.2 4.8 0.00 0.74 0.74 72 1010.7
20260507022204 13 296 3.2 4.8 0.00 0.74 0.74 73 1010.6
20260507021705 13 296 3.2 11.3 0.00 0.74 0.74 74 1010.7
20260507021204 13 244 0.0 1.6 0.00 0.74 0.74 75 1010.5
20260507020705 14 244 0.0 3.2 0.00 0.74 0.74 73 1010.5
20260507020205 14 244 0.0 3.2 0.00 0.74 0.74 72 1010.4
20260507015705 14 192 1.6 4.8 0.00 0.74 0.74 73 1010.5
20260507014704 14 257 3.2 4.8 0.00 0.74 0.74 72 1010.5
20260507013704 14 338 3.2 12.9 0.00 0.74 0.74 73 1010.5
20260507013204 14 312 6.4 19.3 0.00 0.74 0.74 72 1010.6
20260507012704 14 321 8.0 24.1 0.00 0.74 0.74 72 1010.4
20260507012204 15 348 6.4 22.5 0.00 0.74 0.74 72 1010.2
20260507011705 15 339 6.4 19.3 0.00 0.74 0.74 72 1010.2
20260507011206 15 307 6.4 19.3 0.00 0.74 0.74 72 1010.2
20260507010206 15 354 9.7 22.5 0.00 0.74 0.74 72 1010.1
20260507005705 15 338 4.8 16.1 0.00 0.74 0.74 73 1010.0
20260507005205 15 210 0.0 8.0 0.00 0.74 0.74 75 1010.0
20260507004705 15 355 0.0 9.7 0.00 0.74 0.74 75 1010.2
20260507004205 15 354 1.6 9.7 0.00 0.74 0.74 75 1009.8
20260507003705 15 240 1.6 4.8 0.00 0.74 0.74 75 1009.9
20260507003205 15 246 0.0 12.9 0.00 0.74 0.74 73 1010.0
20260507002705 15 236 3.2 14.5 0.00 0.74 0.74 73 1010.1
20260507002205 16 265 3.2 12.9 0.00 0.74 0.74 73 1010.0
20260507001705 15 272 3.2 14.5 0.00 0.74 0.74 73 1009.6
20260507001205 16 355 4.8 14.5 0.00 0.74 0.74 72 1009.4
20260507000205 16 354 3.2 14.5 0.00 0.74 0.74 72 1009.1
20260506235705 16 357 8.0 16.1 0.00 0.74 0.74 71 1008.9
20260506235205 16 345 3.2 9.7 0.00 0.74 0.74 73 1008.6
20260506234705 16 9 4.8 19.3 0.00 0.74 0.74 71 1008.6
20260506234205 16 351 8.0 16.1 0.00 0.74 0.74 72 1008.5
20260506233705 16 352 8.0 19.3 0.00 0.74 0.74 72 1008.4
20260506233205 16 357 8.0 22.5 0.00 0.74 0.74 72 1008.3
20260506232706 16 346 9.7 22.5 0.00 0.74 0.74 71 1008.0
20260506232205 16 356 6.4 19.3 0.00 0.74 0.74 72 1008.1
20260506231705 16 343 9.7 16.1 0.00 0.74 0.74 72 1008.0
20260506231205 17 8 6.4 19.3 0.00 0.74 0.74 74 1008.0
20260506230705 17 342 9.7 22.5 0.00 0.74 0.74 74 1008.0
20260506230205 17 0 9.7 19.3 0.00 0.74 0.74 74 1007.9
20260506225705 17 338 4.8 11.3 0.00 0.74 0.74 76 1007.9
20260506224705 17 333 8.0 19.3 0.00 0.74 0.74 76 1007.9
20260506223705 17 354 8.0 16.1 0.00 0.74 0.74 76 1007.9
20260506223205 17 348 8.0 14.5 0.00 0.74 0.74 77 1007.8
20260506222705 17 354 4.8 14.5 0.00 0.74 0.74 77 1007.7
20260506221705 17 310 1.6 8.0 0.00 0.74 0.74 82 1007.6
20260506221204 17 15 4.8 9.7 0.00 0.74 0.74 84 1007.4
20260506220704 17 4 1.6 8.0 0.00 0.74 0.74 87 1007.4
20260506220205 17 357 1.6 4.8 0.00 0.74 0.74 88 1007.3
20260506215705 18 299 0.0 3.2 0.00 0.74 0.74 88 1007.3
20260506215205 18 300 0.0 0.0 0.00 0.74 0.74 87 1007.1
20260506214705 18 300 0.0 0.0 0.00 0.74 0.74 87 1007.0
20260506214205 18 300 0.0 3.2 0.00 0.74 0.74 87 1007.0
20260506213204 18 287 0.0 3.2 0.00 0.74 0.74 86 1006.8
20260506212705 18 287 1.6 3.2 0.00 0.74 0.74 85 1006.7
20260506212205 18 287 0.0 1.6 0.00 0.74 0.74 84 1006.5
20260506211705 19 287 0.0 3.2 0.00 0.74 0.74 84 1006.4
20260506211204 19 287 0.0 3.2 0.00 0.74 0.74 82 1006.4
20260506210704 19 287 0.0 0.0 0.00 0.74 0.74 81 1006.3
20260506210204 19 287 1.6 3.2 0.00 0.74 0.74 79 1006.3
20260506205204 19 233 0.0 4.8 0.00 0.74 0.74 80 1006.3
20260506204705 19 190 0.0 3.2 0.00 0.74 0.74 81 1006.4
20260506204205 19 249 1.6 3.2 0.00 0.74 0.74 80 1006.4
20260506203705 19 224 3.2 8.0 0.00 0.74 0.74 81 1006.3
20260506202705 19 212 0.0 3.2 0.00 0.74 0.74 81 1006.3
20260506202204 19 276 1.6 9.7 0.00 0.74 0.74 81 1006.3
20260506201704 19 258 3.2 4.8 0.00 0.74 0.74 81 1006.2
20260506200704 19 220 1.6 4.8 0.00 0.74 0.74 83 1006.3
20260506200204 19 193 3.2 4.8 0.00 0.74 0.74 81 1006.2
20260506195204 18 296 1.6 4.8 0.00 0.74 0.74 83 1006.3
20260506194705 18 190 0.0 3.2 0.00 0.74 0.74 83 1006.4
20260506194204 18 190 0.0 3.2 0.00 0.74 0.74 84 1006.4
20260506193705 18 190 1.6 3.2 0.00 0.74 0.74 85 1006.4
20260506193204 18 190 0.0 1.6 0.00 0.74 0.74 86 1006.5
20260506192705 17 190 0.0 1.6 0.00 0.74 0.74 85 1006.6
20260506192205 18 190 0.0 0.0 0.00 0.74 0.74 87 1006.7
20260506191704 17 190 0.0 0.0 0.00 0.74 0.74 88 1006.7
20260506191205 17 190 0.0 3.2 0.00 0.74 0.74 87 1006.7
20260506190705 17 190 0.0 3.2 0.00 0.74 0.74 87 1006.7
20260506190204 17 190 0.0 4.8 0.00 0.74 0.74 87 1006.7
20260506185704 17 175 1.6 4.8 0.00 0.74 0.74 85 1006.8
20260506185204 17 192 3.2 4.8 0.00 0.74 0.74 86 1006.8
20260506184704 17 167 3.2 4.8 0.00 0.74 0.74 86 1006.8
20260506184204 17 206 1.6 3.2 0.00 0.74 0.74 86 1006.9
20260506183204 17 207 1.6 3.2 0.00 0.74 0.74 87 1007.0
20260506182204 17 157 4.8 11.3 0.03 0.74 0.74 87 1007.0
20260506181704 17 175 1.6 4.8 0.03 0.74 0.74 88 1006.9
20260506181204 17 206 1.6 4.8 0.03 0.74 0.74 88 1006.8
20260506180704 17 159 3.2 8.0 0.03 0.74 0.74 88 1006.9
20260506180204 17 165 1.6 8.0 0.03 0.74 0.74 89 1006.9
20260506175204 17 166 4.8 8.0 0.05 0.74 0.74 89 1007.0
20260506174705 16 178 0.0 3.2 0.05 0.74 0.74 89 1007.1
20260506174204 16 178 1.6 3.2 0.05 0.74 0.74 89 1007.1
20260506173704 16 178 3.2 4.8 0.05 0.74 0.74 89 1007.0
20260506173204 16 178 0.0 1.6 0.05 0.74 0.74 89 1007.0
20260506172704 16 178 0.0 3.2 0.05 0.74 0.74 89 1007.0
20260506172204 16 178 0.0 0.0 0.03 0.71 0.71 89 1007.0
20260506171704 16 178 0.0 1.6 0.03 0.71 0.71 89 1007.0
20260506171204 16 178 0.0 0.0 0.03 0.71 0.71 89 1007.1
20260506170704 16 178 0.0 3.2 0.03 0.71 0.71 89 1007.0
20260506170204 16 178 0.0 3.2 0.03 0.71 0.71 89 1007.1
20260506165704 16 177 0.0 3.2 0.03 0.71 0.71 89 1007.1
20260506165203 16 177 1.6 3.2 0.00 0.69 0.69 89 1007.1
20260506164204 16 183 0.0 3.2 0.00 0.69 0.69 88 1007.0
20260506163704 16 183 1.6 3.2 0.00 0.69 0.69 88 1007.0
20260506162704 16 156 0.0 3.2 0.00 0.69 0.69 88 1007.1
20260506161704 16 238 0.0 3.2 0.00 0.69 0.69 88 1007.2
20260506161207 16 238 1.6 4.8 0.00 0.69 0.69 88 1007.1
20260506160706 16 229 1.6 3.2 0.00 0.69 0.69 87 1007.1
20260506160206 16 229 1.6 3.2 0.03 0.69 0.69 88 1007.1
20260506155706 16 229 1.6 3.2 0.03 0.69 0.69 88 1007.0
20260506154706 16 173 3.2 8.0 0.08 0.69 0.69 88 1007.0
20260506154206 16 207 0.0 8.0 0.13 0.69 0.69 88 1007.0
20260506153706 16 172 0.0 3.2 0.15 0.69 0.69 88 1007.0
20260506153206 16 172 0.0 3.2 0.18 0.69 0.69 88 1007.0
20260506152706 16 181 1.6 3.2 0.20 0.69 0.69 88 1007.1
20260506151706 16 188 1.6 4.8 0.25 0.69 0.69 89 1006.9
20260506151206 16 190 0.0 4.8 0.28 0.69 0.69 89 1006.8
20260506150706 16 144 4.8 8.0 0.33 0.69 0.69 88 1006.7
20260506150206 16 182 1.6 4.8 0.38 0.66 0.66 88 1006.8
20260506145706 16 183 0.0 4.8 0.38 0.66 0.66 88 1007.1
20260506145206 16 174 1.6 4.8 0.38 0.64 0.64 88 1007.3
20260506144706 16 186 0.0 3.2 0.36 0.61 0.61 88 1007.3
20260506143207 16 191 4.8 12.9 0.28 0.51 0.51 88 1007.5
20260506142207 16 149 1.6 3.2 0.25 0.46 0.46 88 1007.8
20260506141706 16 149 0.0 4.8 0.25 0.43 0.43 87 1007.7
20260506141206 16 190 0.0 4.8 0.25 0.41 0.41 87 1007.7
20260506140706 16 178 1.6 4.8 0.20 0.36 0.36 87 1007.6
20260506135706 16 214 1.6 4.8 0.13 0.28 0.28 86 1007.6
20260506135207 16 207 1.6 4.8 0.10 0.25 0.25 87 1007.5
20260506134706 16 176 3.2 8.0 0.13 0.25 0.25 87 1007.3
20260506134206 16 133 1.6 4.8 0.13 0.25 0.25 87 1007.2
20260506133706 16 153 1.6 4.8 0.13 0.25 0.25 87 1007.3
20260506132706 16 166 3.2 8.0 0.10 0.23 0.23 89 1007.4
20260506132206 15 144 0.0 3.2 0.08 0.20 0.20 88 1007.3
20260506131706 16 144 0.0 0.0 0.08 0.18 0.18 88 1007.3
20260506131206 16 144 0.0 0.0 0.05 0.15 0.15 88 1007.3
20260506130706 16 144 0.0 0.0 0.08 0.15 0.15 88 1007.6
20260506130206 15 144 0.0 1.6 0.08 0.15 0.15 88 1007.5
20260506125706 15 144 0.0 1.6 0.10 0.15 0.15 88 1007.6
20260506125206 16 144 0.0 0.0 0.10 0.15 0.15 88 1007.4
20260506124708 16 144 0.0 0.0 0.10 0.13 0.13 89 1007.3
20260506123706 15 144 0.0 0.0 0.10 0.13 0.13 89 1007.5
20260506123206 15 144 0.0 0.0 0.10 0.13 0.13 88 1007.6
20260506122706 15 144 0.0 3.2 0.13 0.13 0.13 88 1007.6
20260506122206 15 144 0.0 3.2 0.13 0.13 0.13 88 1007.6
20260506121706 15 144 0.0 3.2 0.10 0.10 0.10 88 1007.7
20260506121205 15 144 0.0 3.2 0.10 0.10 0.10 87 1007.8
20260506120706 15 144 0.0 1.6 0.08 0.08 0.08 87 1007.9
20260506120206 15 144 0.0 3.2 0.08 0.08 0.08 87 1007.8
20260506115205 15 144 0.0 3.2 0.05 0.05 0.05 85 1008.0
20260506114706 15 144 0.0 3.2 0.03 0.03 0.03 85 1007.9
20260506114206 15 144 0.0 1.6 0.03 0.03 0.03 84 1007.9
20260506113206 16 144 0.0 3.2 0.03 0.03 0.03 81 1007.6
20260506112206 16 144 0.0 4.8 0.00 0.00 0.00 78 1007.4
20260506111706 16 152 1.6 4.8 0.00 0.00 0.00 78 1007.3
20260506111206 16 200 0.0 3.2 0.00 0.00 0.00 76 1007.3
20260506110705 16 186 0.0 3.2 0.00 0.00 0.00 75 1007.2
20260506110206 16 186 0.0 1.6 0.00 0.00 0.00 75 1007.1
20260506105706 16 186 0.0 1.6 0.00 0.00 0.00 74 1007.1
20260506105206 17 186 0.0 11.3 0.00 0.00 0.00 73 1007.1
20260506104705 17 200 1.6 4.8 0.00 0.00 0.00 71 1007.0
20260506104206 17 163 1.6 4.8 0.00 0.00 0.00 71 1007.0
20260506103706 17 159 0.0 0.0 0.00 0.00 0.00 72 1006.9
20260506103206 17 159 0.0 3.2 0.00 0.00 0.00 69 1006.8
20260506102705 17 218 0.0 4.8 0.00 0.00 0.00 68 1006.8
20260506102206 17 165 1.6 4.8 0.00 0.00 0.00 69 1006.7
20260506101705 16 167 0.0 3.2 0.00 0.00 0.00 71 1006.7